Starlink 5245

operational
NORAD ID: 54168 Int'l Des: 2022-141 Owner: SPXS Country: US Constellation: starlink
LEOCIRCULAR

关于 Starlink 5245

正在加载描述...

实时位置

正在加载3D地球...

即将过境

高度历史

Altitude vs Time

uPlot chart will show altitude changes over time

两行轨道根数

1 54168U 22141M 25351.33550847 .00000225 00000-0 32197-4 0 9990
2 54168 53.2179 13.9129 0001234 90.5516 269.5618 15.08844501173424
Epoch: Dec 17, 2025 • Age: 23 hours

当前状态

高度 543.7 km
速度 7.60 km/s
星下点 45.07°N, 48.12°W
发射日期 Oct 28, 2022
运行时间 3.1 years
类型 internet

技术详情

分类 Payload
质量 305.00 kg
干质量 290.00 kg
总质量 305.00 kg
长度 0.20 m
直径 2.80 m
跨度 9.00 m
形状 Box + pan
制造商 SPXS
平台类型 Starlink
阶段状态 In Orbit
所有者/国家 SPXS/US

大型星座

Loading constellations...